Location: Newark
(34.1333°N, 7.9667°W)
Time: 07:09:17
(UTC+00:00)

SR - All Passes

Search period start: 15 June 2021 00:00
Search period end: 25 June 2021 00:00
Orbit: 574 x 880 km, 66.7° (Epoch: 14 June)

Date Brightness Start Highest point End Pass type
(mag) Time Alt. Az. Time Alt. Az. Time Alt. Az.
15 Jun - 02:47:56 10° N 02:52:41 35° ENE 02:57:02 10° ESE visible
15 Jun - 04:30:37 10° NW 04:34:25 22° WSW 04:37:59 10° SSW visible
15 Jun - 17:12:16 10° S 17:17:58 57° ESE 17:23:46 10° NE daylight
15 Jun - 18:55:56 10° WSW 19:00:25 22° NW 19:04:53 10° N daylight
16 Jun - 01:59:01 10° N 02:02:29 18° NE 02:05:46 10° E visible
16 Jun - 03:40:01 10° NW 03:44:56 50° WSW 03:49:25 10° S visible
16 Jun - 16:23:31 10° SSE 16:28:23 28° ESE 16:33:19 10° NE daylight
16 Jun - 18:04:47 10° SW 18:10:17 40° WNW 18:15:49 10° NNE daylight
17 Jun - 02:50:05 10° NNW 02:55:14 70° ENE 02:59:53 10° SSE visible
17 Jun - 15:36:26 10° SE 15:38:59 13° ESE 15:41:32 10° ENE daylight
17 Jun - 17:14:28 10° SSW 17:20:21 78° WNW 17:26:17 10° NNE daylight
17 Jun - 19:00:52 10° WNW 19:03:21 13° NW 19:05:49 10° NNW daylight
18 Jun - 02:00:38 10° N 02:05:15 32° NE 02:09:30 10° ESE visible
18 Jun - 03:43:08 10° NW 03:47:03 24° WSW 03:50:44 10° SSW visible
18 Jun - 16:24:57 10° S 16:30:36 53° ESE 16:36:21 10° NE daylight
18 Jun - 18:08:23 10° WSW 18:13:00 23° NW 18:17:37 10° N daylight
19 Jun - 01:11:49 10° N 01:15:03 16° NE 01:18:06 10° E visible
19 Jun - 02:52:36 10° NW 02:57:33 55° WSW 03:02:03 10° S visible
19 Jun - 15:36:19 10° SSE 15:41:03 26° ESE 15:45:49 10° NE daylight
19 Jun - 17:17:19 10° SW 17:22:53 43° WNW 17:28:29 10° NNE daylight
20 Jun - 02:02:44 10° NNW 02:07:49 65° ENE 02:12:26 10° SE visible
20 Jun - 03:48:07 10° W 03:49:02 10° WSW 03:49:57 10° WSW visible
20 Jun - 14:49:36 10° ESE 14:51:40 12° ESE 14:53:43 10° E daylight
20 Jun - 16:27:06 10° SSW 16:32:59 84° WNW 16:38:55 10° NNE daylight
20 Jun - 18:13:06 10° WNW 18:15:54 13° NW 18:18:41 10° NNW daylight
21 Jun - 01:13:20 10° N 01:17:50 30° NE 01:21:58 10° ESE visible
21 Jun - 02:55:39 10° NW 02:59:42 25° WSW 03:03:28 10° SSW visible
21 Jun - 15:37:38 10° S 15:43:16 49° ESE 15:48:56 10° NE daylight
21 Jun - 17:20:50 10° WSW 17:25:36 25° NW 17:30:20 10° N daylight
22 Jun - 00:24:38 10° NNE 00:27:35 15° NE 00:30:24 10° E visible
22 Jun - 02:05:12 10° NNW 02:10:11 60° WSW 02:14:41 10° SSE visible
22 Jun - 14:49:07 10° SSE 14:53:43 24° ESE 14:58:20 10° NE daylight
22 Jun - 16:29:52 10° SW 16:35:30 46° WNW 16:41:09 10° NNE daylight
23 Jun - 01:15:23 10° NNW 01:20:25 59° ENE 01:24:58 10° SE visible
23 Jun - 03:00:06 10° W 03:01:41 11° WSW 03:03:14 10° WSW visible
23 Jun - 14:02:57 10° ESE 14:04:19 11° ESE 14:05:42 10° E daylight
23 Jun - 15:39:43 10° SSW 15:45:37 89° WNW 15:51:33 10° NNE daylight
23 Jun - 17:25:23 10° W 17:28:28 14° NW 17:31:31 10° NNW daylight
24 Jun - 00:26:03 10° N 00:30:24 27° NE 00:34:25 10° ESE visible
24 Jun - 02:08:10 10° NW 02:12:20 27° WSW 02:16:12 10° SSW visible
24 Jun - 14:50:20 10° S 14:55:54 46° ESE 15:01:30 10° NE daylight
24 Jun - 16:33:18 10° WSW 16:38:11 26° NW 16:43:02 10° N daylight
24 Jun - 23:37:29 10° NNE 23:40:08 14° NE 23:42:41 10° E visible
